Overview Statistics Trail Chart Weather Telemetry Raw packets
 

This is the latest recevied weather packets stored in our database for station/object DL2AKT-20. If no packets are shown the sender has not sent any weather packets the latest 10 day(s).

<< 15 16 17 18 19 20 21 >>
Time Temp. Humidity Pressure Rain* Wind** Luminosity Snow
1777826159 27.22° C 22% 1015.2 hPa - - - -
1777825258 27.22° C 22% 1015.2 hPa - - - -
1777824358 28.33° C 22% 1015.3 hPa - - - -
1777823458 28.89° C 23% 1015.3 hPa - - - -
1777822551 29.44° C 21% 1015.3 hPa - - - -
1777821650 30° C 21% 1015.4 hPa - - - -
1777820750 30.56° C 20% 1015.4 hPa - - - -
1777819850 30° C 21% 1015.4 hPa - - - -
1777818950 30.56° C 20% 1015.5 hPa - - - -
1777818049 30.56° C 19% 1015.6 hPa - - - -
1777817149 30° C 20% 1015.6 hPa - - - -
1777816249 29.44° C 20% 1015.7 hPa - - - -
1777815349 29.44° C 20% 1015.9 hPa - - - -
1777814449 29.44° C 20% 1016.1 hPa - - - -
1777813549 29.44° C 21% 1016.2 hPa - - - -
1777812652 29.44° C 21% 1016.4 hPa - - - -
1777811752 28.89° C 21% 1016.3 hPa - - - -
1777810851 28.89° C 20% 1016.5 hPa - - - -
1777809951 28.89° C 21% 1016.5 hPa - - - -
1777809051 27.78° C 22% 1016.7 hPa - - - -
1777808151 27.22° C 24% 1016.8 hPa - - - -
1777807251 26.67° C 24% 1017 hPa - - - -
1777806351 26.11° C 25% 1017 hPa - - - -
1777805451 26.11° C 24% 1017.2 hPa - - - -
1777804565 26.11° C 23% 1017.3 hPa - - - -

* Rain since midnight (hover to see other rain measurements)
** Current wind speed in m/s (hover to see current wind gust speed)